Regional Weather Roundup
Issued by NWS

Home | Current Version | Previous Version | Text Only | Print | Product List | Glossary Off
Versions: 1 2 3 4 5 6 7 8 9 10 11 12 13 14 15 16 17 18 19 20 21 22 23 24 25 26 27 28 29 30 31 32 33 34 35 36 37 38 39 40 41 42 43 44 45 46 47 48 49 50

000
ASUS45 KABQ 311701
RWRNM
NEW MEXICO REGIONAL WEATHER ROUNDUP
NATIONAL WEATHER SERVICE ALBUQUERQUE NM
1100 AM MDT FRI JUL 31 2015

NOTE: "FAIR" MEANS FEW OR NO CLOUDS BELOW 12,000 FEET AGL WITH NO
       SIGNIFICANT WEATHER OR OBSTRUCTIONS TO VISION.

      THIS PRODUCT IS RELEASED AS TWO VERSIONS.  ONE VERSION NEAR
      THE TOP OF THE HOUR CONTAINING PRELIMINARY DATA FROM ALBUQUERQUE
      AND OTHER STATIONS.  A FINAL VERSION WITH ADDITIONAL DATA IS
      ISSUED ABOUT 10 MINUTES AFTER THE HOUR.

NMZ501-503-504-510>518-311800-
NORTHWEST PLATEAU/NORTHCENTRAL MOUNTAINS

CITY           SKY/WX    TMP DP  RH WIND       PRES   REMARKS
FARMINGTON     MOSUNNY   72  58  61 SE7       30.36S
SANTA FE       CLOUDY    69  58  67 SW9       30.43S
TAOS           PTSUNNY   70  52  52 W3        30.48F
ANGEL FIRE     FAIR      65  50  58 CALM      30.55F

$$
NMZ402-403-502-505>509-311800-
WESTCENTRAL MOUNTAINS/SOUTHWEST MOUNTAINS

CITY           SKY/WX    TMP DP  RH WIND       PRES   REMARKS
GALLUP         MOSUNNY   71  58  63 W3        30.40F
SILVER CITY      N/A     75  59  57 SE7       30.35F

$$
NMZ407-409-411-412-311800-
SOUTHERN DESERTS

CITY           SKY/WX    TMP DP  RH WIND       PRES   REMARKS
DEMING         CLOUDY    77  65  66 NE9       30.28S
HOLLOMAN AFB   MOSUNNY   86  56  36 NW2       30.24F
ALAMOGORDO     MOSUNNY   84  55  37 CALM      30.27S
T OR C         CLOUDY    73  63  70 E3        30.31F

$$
NMZ519>523-311800-
CENTRAL VALLEYS/CENTRAL HIGHLANDS

CITY           SKY/WX    TMP DP  RH WIND       PRES   REMARKS
ALBUQUERQUE    PTSUNNY   75  60  59 S10       30.38S
DOUBLE EAGLE   PTSUNNY   75  61  60 S5        30.41S
MORIARTY ARPT    N/A     71  58  63 CALM      30.43F
CLINES CORNERS NOT AVBL
BELEN          FAIR      77  58  51 W6        30.36F
SOCORRO        NOT AVBL

$$
NMZ524>526-539-540-311800-
SOUTHCENTRAL MOUNTAINS

CITY           SKY/WX    TMP DP  RH WIND       PRES   REMARKS
RUIDOSO          N/A    N/A N/A N/A MISG        N/A

$$
NMZ527>531-311800-
NORTHEAST HIGHLANDS/NORTHEAST PLAINS

CITY           SKY/WX    TMP DP  RH WIND       PRES   REMARKS
LAS VEGAS      CLOUDY    67  57  70 SW10      30.47S
RATON          SUNNY     74  56  53 E5        30.40F
CLAYTON        NOT AVBL

$$
NMZ532>537-311800-
EASTCENTRAL PLAINS

CITY           SKY/WX    TMP DP  RH WIND       PRES   REMARKS
TUCUMCARI      LGT RAIN  71  66  84 N6        30.30F
CANNON AFB     CLOUDY    76  64  67 VRB5      30.32R
CLOVIS AIRPORT PTSUNNY   77  61  57 N10       30.33S

$$
NMZ028-029-538-311800-
SOUTHEAST PLAINS

CITY           SKY/WX    TMP DP  RH WIND       PRES   REMARKS
ROSWELL        MOSUNNY   82  64  54 NE9       30.27S
ARTESIA        SUNNY     82  64  54 N9        30.26F
CARLSBAD       SUNNY     88  64  44 N13G21    30.23S
HOBBS          SUNNY     90  48  24 S5        30.26S


$$


USA.gov is the U.S. government's official web portal to all federal, state and local government web resources and services.